Regional Weather Roundup
Issued by NWS Upton, NY

Current Version | Previous Version | Text Only | Print | Product List | Glossary Off
Versions: 1 2 3 4 5 6 7 8 9 10 11 12 13 14 15 16 17 18 19 20 21 22 23 24 25 26 27 28 29 30 31 32 33 34 35 36 37 38 39 40 41 42 43 44 45 46 47 48 49 50
000 ASUS41 KOKX 261707 RWROKX REGIONAL WEATHER ROUNDUP NATIONAL WEATHER SERVICE NEW YORK NY 100 PM EDT SUN APR 26 2015 NOTE: "FAIR" INDICATES FEW OR NO CLOUDS BELOW 12,000 FEET WITH NO SIGNIFICANT WEATHER AND/OR OBSTRUCTIONS TO VISIBILITY. NYZ071-072-176-178-NJZ106-104-261800- NEW YORK CITY METRO AREA CITY SKY/WX TMP DP RH WIND PRES REMARKS CENTRAL PARK PTSUNNY 59 27 29 VRB3 29.70F LAGUARDIA APRT PTSUNNY 57 28 33 CALM 29.68F KENNEDY INTL PTSUNNY 56 33 42 SW13 29.70F NEWARK/LIBERTY MOSUNNY 61 29 29 N10 29.68F BRNX BOT. GARD N/A 57 28 33 N3 29.69F TETERBORO CLOUDY 58 30 34 VRB7 29.67F $$ NYZ177-179-078>081-261800- LONG ISLAND NEW YORK CITY SKY/WX TMP DP RH WIND PRES REMARKS FARMINGDALE PTSUNNY 57 30 35 VRB7 29.68F ISLIP PTSUNNY 57 28 33 VRB6 29.66F SHIRLEY MOSUNNY 59 29 31 NW12 29.68F WESTHAMPTON SUNNY 58 30 34 NW12G17 29.68F MONTAUK POINT N/A 55 31 39 W7 29.67F $$ NYZ052-065-067-261800- HUDSON VALLEY CITY SKY/WX TMP DP RH WIND PRES REMARKS WHITE PLAINS PTSUNNY 55 28 35 W7 29.66F NEWBURGH PTSUNNY 55 34 44 W9 29.68F MONTGOMERY PTSUNNY 56 30 37 S6 29.66F POUGHKEEPSIE PTSUNNY 58 30 34 NW10G16 29.67F ALBANY PTSUNNY 56 29 35 W13G20 29.69F $$ NJZ001-105-106-008-010-013-015-019>022-104-261800- NEW JERSEY CITY SKY/WX TMP DP RH WIND PRES REMARKS NEWARK/LIBERTY MOSUNNY 61 29 29 N10 29.68F TETERBORO CLOUDY 58 30 34 VRB7 29.67F CALDWELL PTSUNNY 57 26 30 VRB7 29.68F MORRISTOWN PTSUNNY 59 30 33 CALM 29.68F SOMERVILLE PTSUNNY 60 27 28 VRB5 29.66F SUSSEX PTSUNNY 56 30 37 VRB5 29.69F ANDOVER N/A 55 28 35 NE6 29.69F TRENTON CLOUDY 59 31 34 VRB7 29.68F MILLVILLE PTSUNNY 59 34 39 E9 29.68F ATLANTIC CITY SUNNY 57 31 37 E14G21 29.70S WRIGHTSTOWN MOSUNNY 58 29 33 VRB6 29.67F TOMS RIVER SUNNY 55 27 33 E9 29.71S BELMAR SUNNY 55 30 38 E10 29.70F $$ PAZ047>061-062-071-261800- EASTERN PENNSYLVANIA CITY SKY/WX TMP DP RH WIND PRES REMARKS PHILADELPHIA MOSUNNY 61 30 31 SE6 29.70F ALLENTOWN MOSUNNY 58 31 35 CALM 29.70F SCRANTON CLOUDY 53 28 38 W9 29.71F $$ CTZ002-004>006-009-010-012-RIZ004-006-007-MAZ004-011-015-261800- SOUTHERN NEW ENGLAND IN CT CITY SKY/WX TMP DP RH WIND PRES REMARKS BRADLEY INTL CLOUDY 58 28 32 NW8 29.64F HARTFORD CLOUDY 58 30 34 VRB6 29.65F DANBURY PTSUNNY 57 29 34 W7 29.67F WTRBRY/OXFORD PTSUNNY 54 30 40 N10 29.67F BRIDGEPORT PTSUNNY 55 35 47 SW14 29.67F MERIDEN PTSUNNY 59 26 28 N13 29.65F NEW HAVEN PTSUNNY 52 34 50 SW10 29.66F CHESTER PTSUNNY 55 28 35 N10 29.65F GROTON CLOUDY 51 34 52 SW15 29.64F WILLIMANTIC CLOUDY 56 29 35 NW8 29.65F IN RI CITY SKY/WX TMP DP RH WIND PRES REMARKS PROVIDENCE PTSUNNY 56 30 37 N9 29.64F BLOCK ISLAND CLOUDY 52 30 43 SW8 29.66S WESTERLY CLOUDY 50 36 58 S10 29.65F IN MA CITY SKY/WX TMP DP RH WIND PRES REMARKS BOSTON PTSUNNY 48 35 60 SE13 29.65F WORCESTER CLOUDY 51 27 39 NW12G18 29.63F WESTFIELD CLOUDY 56 27 32 N8 29.65F PROVINCETOWN SUNNY N/A N/A N/A N8 29.66S NANTUCKET MOSUNNY 53 33 46 N6 29.64F $$ ANZ330-335-338-340-345-350-353-355-261800- COASTAL MARINE OBSERVATIONS STATION/POSITION TIME SKY/WX TEMP WIND PRES VSBY WAVE AIR SEA DIR/SP/G HT/PER (UTC) (F) (DEG/KT/KT) (MB) (MI) (FT/S) NY HARB ENTRANCE 1650 47 48 220/ 6/ 6 1005.3 1/11 4S FIRE IS 1603 46 N/A 1/12 20S FIRE ISLAND 1650 46 47 CALM 1005.4 1/11 23SW MTP NOT AVBL HUDSON CANYON NOT AVBL EXECUTION ROCKS NOT AVBL WESTERN LI SOUND NOT AVBL CENTRAL LI SOUND NOT AVBL EASTERN LI SOUND 1600 47 250/ 12/ 14 N/A ROBBINS REEF 1600 52 60/ 4/ 5 1004.5 $$ >>>>>>>>>>>>>>>>>>>>>>>>>>>> KEY <<<<<<<<<<<<<<<<<<<<<<<<<<< > < > SKY/WX - SKY CONDITION/PRESENT WEATHER < > TMP - TEMPERATURE IN FAHRENHEIT < > DP - DEWPOINT IN FAHRENHEIT < > RH - RELATIVE HUMIDITY IN PERCENT < > WIND - DIRECTION AND SPEED IN MPH < > PRES - MEAN SEA LEVEL PRESSURE IN INCHES OF HG < > WCI - WIND CHILL INDEX < > VSB - VISIBILITY IN MILES < > HX - HEAT INDEX < > TC - TEMPERATURE IN CELSIUS < > VRB - VARIABLE WIND DIRECTION < > < >>>>>>>>>>>>>>>>>>>>>>>>>>>> KEY <<<<<<<<<<<<<<<<<<<<<<<<<<<

USA.gov is the U.S. government's official web portal to all federal, state and local government web resources and services.